STARLINK-1133 (45064 NORAD) Tracking and Keplerian Element Data

This shows tracking and keplerian element data for the satellite.

Feedback or suggestion? Click here.




ElementValue
Catalog45064
NameSTARLINK-1133
Epoch Orbit953
Epoch Day87.91667824
Epoch Year2020
RAAN306.4047
Inclination53.0002
Eccentricity0.0007401
Argument of Perigee309.7048
Mean Anonmoly59.339
Mean Motion15.62721796
Decay Rate0.00111715
L11 45064U 20006W 20087.91667824 .00111715 00000-0 12093-2 0 9990
L22 45064 53.0002 306.4047 0007401 309.7048 59.3390 15.62721796 9530

Live tracking and technical data element details for STARLINK-1133 (NORAD 45064). STARLINK-1133 can be tracked NOW for your location showing map with azimuth and elevation plus other details from your city location.

Track the satellite on the map from your city or location and see movement details for azimuth, elevation, latitude, longitude, range, height, and movement on the map or in text.







IsCatalogInMostPopularTable: catalog: 45064, numindb: 11
Update: records affected: 1



GetName: 45064 STARLINK-1133

Hit Count: updated at: Sat, 28 Mar 2020 20:38:41 GMT